Lid_Strength_Index
1 1 2 2 2 2 2 2 2 2 2 2 2 2 3 2 3 3 4 4 4 4
1 1 1 1 1 1 1 2 2 2 2 2 2 2 2 3 3 4 4 4 4 5
1 1 1 1 1 1 1 1 2 2 2 2 2 2 2 2 2 3 4 4 4 3
1 1 1 1 1 1 1 1 2 1 2 2 2 2 2 2 2 3 3 3 4 3
4 2 2 1 1 1 1 1 1 1 1 2 2 2 2 2 2 2 3 3 3 4
8 8 8 7 7 6 6 6 6 5 2 2 2 2 2 2 2 2 2 2 3 3
11 10 9 9 8 7 7 8 8 8 8 10 9 9 9 8 8 8 7 5 4 3
11 11 11 11 10 10 9 9 9 9 9 10 10 11 11 11 10 9 9 9 9 8
12 12 12 12 12 12 11 12 11 12 11 11 11 12 13 13 11 11 11 11 11 11
13 13 13 13 13 13 13 13 13 13 12 12 13 13 13 13 13 12 12 12 12 13
13 14 14 13 13 14 14 14 14 14 14 14 14 13 13 13 13 13 13 13 13 13
14 14 14 14 14 15 15 16 15 15 15 15 15 13 12 12 14 14 13 13 13 13
14 15 15 15 15 16 16 16 16 16 16 14 14 12 11 10 11 11 12 11 11 12
15 15 15 15 15 15 14 14 14 14 14 14 14 13 11 11 11 11 11 11 11 11